NCR008 SVMI-TJSJ

Flight info

Callsign NCR008
Flight time 1h 24m
Altitude 33000
Route MIDUR DCT TOSOS DCT SILVA DCT ARMUR JOSHE3
Aircraft A332/H-SDE3GHIJ2J3J5M1RVWXY/LB2D1

Departure

Time 2026-04-27 23:01
Airport Maiquetía Simón Bolívar International Airport (SVMI)

Arrival

Time 2026-04-28 00:25
Airport Luis Munoz Marin International Airport (TJSJ)
Time Latitude Longitude Altitude Speed Heading
2026-04-27 22:35 10.60087 -66.98175 211 ft 0 kts 223°
2026-04-27 22:51 10.60088 -66.98174 196 ft 2 kts 223°
2026-04-27 22:51 10.60100 -66.98162 211 ft 2 kts 223°
2026-04-27 22:52 10.60114 -66.98152 206 ft 3 kts 211°
2026-04-27 22:52 10.60129 -66.98143 212 ft 2 kts 211°
2026-04-27 22:52 10.60144 -66.98134 213 ft 3 kts 220°
2026-04-27 22:52 10.60155 -66.98120 210 ft 3 kts 255°
2026-04-27 22:53 10.60155 -66.98118 200 ft 0 kts 255°
2026-04-27 22:56 10.60155 -66.98119 212 ft 0 kts 255°
2026-04-27 22:56 10.60154 -66.98125 211 ft 3 kts 257°
2026-04-27 22:56 10.60147 -66.98161 209 ft 8 kts 259°
2026-04-27 22:56 10.60133 -66.98228 209 ft 12 kts 258°
2026-04-27 22:57 10.60110 -66.98324 207 ft 16 kts 255°
2026-04-27 22:57 10.60080 -66.98447 200 ft 20 kts 256°
2026-04-27 22:57 10.60021 -66.98589 204 ft 23 kts 252°
2026-04-27 22:57 10.59979 -66.98748 195 ft 23 kts 254°
2026-04-27 22:58 10.59939 -66.98902 191 ft 23 kts 255°
2026-04-27 22:58 10.59902 -66.99054 182 ft 22 kts 256°
2026-04-27 22:58 10.59866 -66.99199 180 ft 21 kts 256°
2026-04-27 22:58 10.59831 -66.99340 178 ft 20 kts 256°
2026-04-27 22:59 10.59797 -66.99474 176 ft 19 kts 257°
2026-04-27 22:59 10.59808 -66.99607 173 ft 19 kts 279°
2026-04-27 22:59 10.59844 -66.99721 171 ft 14 kts 341°
2026-04-27 22:59 10.59891 -66.99673 172 ft 8 kts 71°
2026-04-27 23:00 10.59941 -66.99470 174 ft 52 kts 76°
2026-04-27 23:00 10.60088 -66.98873 186 ft 120 kts 76°
2026-04-27 23:00 10.60341 -66.97848 357 ft 170 kts 76°
2026-04-27 23:01 10.60632 -66.96635 1088 ft 183 kts 77°
2026-04-27 23:01 10.60956 -66.95391 2000 ft 180 kts 69°
2026-04-27 23:01 10.61805 -66.94409 2373 ft 202 kts 25°
2026-04-27 23:01 10.63276 -66.94262 2628 ft 230 kts 348°
2026-04-27 23:02 10.64849 -66.94858 2931 ft 253 kts 337°
2026-04-27 23:02 10.66579 -66.95372 3399 ft 264 kts 349°
2026-04-27 23:02 10.68423 -66.95601 3917 ft 270 kts 357°
2026-04-27 23:02 10.70321 -66.95632 4520 ft 275 kts
2026-04-27 23:03 10.72245 -66.95544 5189 ft 279 kts
2026-04-27 23:03 10.74191 -66.95400 5855 ft 282 kts
2026-04-27 23:03 10.76174 -66.95242 6479 ft 288 kts
2026-04-27 23:03 10.78188 -66.95089 7116 ft 292 kts
2026-04-27 23:04 10.80229 -66.94948 7840 ft 294 kts
2026-04-27 23:04 10.82282 -66.94818 8570 ft 297 kts
2026-04-27 23:04 10.84355 -66.94696 9278 ft 300 kts
2026-04-27 23:04 10.86457 -66.94574 9962 ft 304 kts
2026-04-27 23:05 10.88576 -66.94452 10395 ft 317 kts
2026-04-27 23:05 10.90877 -66.94318 10643 ft 336 kts
2026-04-27 23:05 10.93244 -66.94181 10867 ft 354 kts
2026-04-27 23:05 10.95775 -66.94037 11261 ft 364 kts
2026-04-27 23:06 10.98288 -66.93896 11810 ft 369 kts
2026-04-27 23:06 11.00865 -66.93753 12393 ft 373 kts
2026-04-27 23:06 11.03476 -66.93607 12991 ft 377 kts
2026-04-27 23:06 11.06103 -66.93460 13590 ft 381 kts
2026-04-27 23:07 11.08765 -66.93310 14105 ft 385 kts
2026-04-27 23:07 11.11444 -66.93159 14642 ft 388 kts
2026-04-27 23:07 11.14164 -66.93005 15070 ft 394 kts
2026-04-27 23:07 11.16901 -66.92849 15694 ft 394 kts
2026-04-27 23:08 11.19654 -66.92693 16155 ft 399 kts
2026-04-27 23:08 11.22435 -66.92534 16727 ft 400 kts
2026-04-27 23:08 11.25223 -66.92376 17220 ft 404 kts
2026-04-27 23:08 11.28049 -66.92216 17691 ft 408 kts
2026-04-27 23:09 11.30882 -66.92056 18241 ft 409 kts
2026-04-27 23:09 11.33745 -66.91894 18602 ft 414 kts
2026-04-27 23:09 11.36620 -66.91732 19081 ft 415 kts
2026-04-27 23:09 11.39520 -66.91567 19452 ft 419 kts
2026-04-27 23:10 11.42434 -66.91402 19921 ft 420 kts
2026-04-27 23:10 11.45330 -66.91237 20221 ft 425 kts
2026-04-27 23:10 11.48288 -66.91067 20689 ft 426 kts
2026-04-27 23:10 11.51301 -66.90896 21017 ft 431 kts
2026-04-27 23:11 11.54302 -66.90725 21468 ft 432 kts
2026-04-27 23:11 11.57276 -66.90556 21797 ft 437 kts
2026-04-27 23:11 11.60316 -66.90384 22219 ft 437 kts
2026-04-27 23:11 11.63364 -66.90210 22574 ft 442 kts
2026-04-27 23:12 11.66446 -66.90035 22940 ft 444 kts
2026-04-27 23:12 11.69538 -66.89860 23329 ft 447 kts
2026-04-27 23:12 11.72656 -66.89682 23684 ft 449 kts
2026-04-27 23:12 11.75777 -66.89504 24002 ft 452 kts
2026-04-27 23:13 11.78928 -66.89315 24305 ft 454 kts
2026-04-27 23:13 11.82079 -66.89084 24646 ft 456 kts
2026-04-27 23:13 11.85249 -66.88826 24957 ft 458 kts
2026-04-27 23:13 11.88425 -66.88555 25286 ft 460 kts
2026-04-27 23:14 11.91624 -66.88281 25612 ft 461 kts
2026-04-27 23:14 11.94829 -66.88003 25927 ft 464 kts
2026-04-27 23:14 11.98052 -66.87733 26260 ft 465 kts
2026-04-27 23:14 12.01287 -66.87468 26551 ft 468 kts
2026-04-27 23:15 12.04540 -66.87204 26889 ft 469 kts
2026-04-27 23:15 12.07798 -66.86939 27166 ft 472 kts
2026-04-27 23:15 12.11082 -66.86670 27519 ft 473 kts
2026-04-27 23:15 12.14330 -66.86404 27797 ft 476 kts
2026-04-27 23:16 12.17679 -66.86128 28158 ft 477 kts
2026-04-27 23:16 12.20957 -66.85857 28424 ft 480 kts
2026-04-27 23:16 12.24289 -66.85582 28756 ft 481 kts
2026-04-27 23:16 12.27638 -66.85305 28998 ft 484 kts
2026-04-27 23:17 12.30999 -66.85027 29343 ft 485 kts
2026-04-27 23:17 12.34384 -66.84748 29572 ft 489 kts
2026-04-27 23:17 12.37772 -66.84468 29919 ft 489 kts
2026-04-27 23:17 12.41182 -66.84186 30138 ft 492 kts
2026-04-27 23:18 12.43448 -66.83999 30327 ft 493 kts
2026-04-27 23:18 12.46877 -66.83715 30524 ft 496 kts
2026-04-27 23:18 12.50315 -66.83431 30791 ft 497 kts
2026-04-27 23:18 12.53770 -66.83145 30996 ft 499 kts
2026-04-27 23:19 12.57235 -66.82859 31253 ft 500 kts
2026-04-27 23:19 12.60714 -66.82571 31484 ft 502 kts
2026-04-27 23:19 12.64203 -66.82282 31705 ft 504 kts
2026-04-27 23:19 12.67698 -66.81993 32032 ft 503 kts
2026-04-27 23:20 12.71191 -66.81703 32374 ft 502 kts
2026-04-27 23:20 12.74667 -66.81415 32721 ft 501 kts
2026-04-27 23:20 12.78145 -66.81126 32938 ft 500 kts
2026-04-27 23:20 12.81584 -66.80841 32970 ft 492 kts
2026-04-27 23:21 12.88355 -66.80277 32972 ft 486 kts
2026-04-27 23:21 12.95100 -66.79719 32972 ft 486 kts
2026-04-27 23:22 13.01848 -66.79159 32969 ft 486 kts
2026-04-27 23:22 13.08597 -66.78599 32972 ft 486 kts
2026-04-27 23:23 13.15342 -66.78038 32975 ft 487 kts
2026-04-27 23:23 13.22097 -66.77477 32975 ft 487 kts
2026-04-27 23:24 13.28808 -66.76918 32973 ft 487 kts
2026-04-27 23:24 13.35559 -66.76356 32976 ft 487 kts
2026-04-27 23:25 13.42311 -66.75794 32979 ft 487 kts
2026-04-27 23:25 13.49067 -66.75231 32979 ft 487 kts
2026-04-27 23:26 13.55823 -66.74667 32982 ft 487 kts
2026-04-27 23:26 13.62575 -66.74104 32983 ft 487 kts
2026-04-27 23:27 13.69330 -66.73540 32978 ft 487 kts
2026-04-27 23:27 13.76039 -66.72980 32985 ft 487 kts
2026-04-27 23:28 13.82800 -66.72415 32980 ft 487 kts
2026-04-27 23:28 13.89562 -66.71849 32981 ft 488 kts
2026-04-27 23:29 13.96335 -66.71282 32981 ft 488 kts
2026-04-27 23:29 14.03099 -66.70716 32990 ft 488 kts
2026-04-27 23:30 14.09862 -66.70148 32991 ft 488 kts
2026-04-27 23:30 14.16648 -66.69572 32989 ft 489 kts
2026-04-27 23:31 14.23431 -66.68999 32987 ft 489 kts
2026-04-27 23:31 14.30164 -66.68433 32988 ft 489 kts
2026-04-27 23:32 14.36943 -66.67864 32992 ft 489 kts
2026-04-27 23:32 14.43722 -66.67295 32996 ft 489 kts
2026-04-27 23:33 14.50521 -66.66951 32994 ft 489 kts 360°
2026-04-27 23:33 14.57330 -66.66738 32994 ft 489 kts 360°
2026-04-27 23:34 14.64135 -66.66518 32993 ft 489 kts
2026-04-27 23:34 14.70941 -66.66293 32998 ft 489 kts
2026-04-27 23:35 14.77749 -66.66066 32999 ft 489 kts 360°
2026-04-27 23:35 14.84554 -66.65839 32999 ft 489 kts 360°
2026-04-27 23:36 14.91357 -66.65612 32998 ft 489 kts 360°
2026-04-27 23:36 14.98163 -66.65385 32999 ft 489 kts 360°
2026-04-27 23:37 15.04969 -66.65157 33002 ft 489 kts 360°
2026-04-27 23:37 15.11776 -66.64929 33003 ft 489 kts 359°
2026-04-27 23:38 15.18569 -66.64701 33004 ft 489 kts 359°
2026-04-27 23:38 15.25370 -66.64474 33004 ft 489 kts 359°
2026-04-27 23:39 15.32163 -66.64246 33004 ft 489 kts 359°
2026-04-27 23:39 15.38918 -66.64019 33009 ft 489 kts 359°
2026-04-27 23:40 15.45705 -66.63791 33010 ft 488 kts 359°
2026-04-27 23:40 15.52490 -66.63563 33013 ft 487 kts 359°
2026-04-27 23:41 15.59268 -66.63267 33015 ft 487 kts
2026-04-27 23:41 15.66046 -66.62931 33016 ft 487 kts
2026-04-27 23:42 15.72821 -66.62594 33018 ft 487 kts
2026-04-27 23:42 15.79612 -66.62259 33015 ft 490 kts
2026-04-27 23:43 15.86423 -66.61923 33020 ft 490 kts
2026-04-27 23:43 15.93196 -66.61589 33021 ft 490 kts
2026-04-27 23:44 16.00014 -66.61253 33023 ft 490 kts
2026-04-27 23:44 16.06827 -66.60917 33029 ft 490 kts 360°
2026-04-27 23:45 16.13649 -66.60580 33028 ft 491 kts 360°
2026-04-27 23:45 16.20477 -66.60243 33027 ft 491 kts 360°
2026-04-27 23:46 16.27301 -66.59905 33026 ft 491 kts 360°
2026-04-27 23:46 16.34132 -66.59567 33025 ft 491 kts 360°
2026-04-27 23:47 16.40959 -66.59229 33032 ft 491 kts 360°
2026-04-27 23:47 16.47795 -66.58891 33030 ft 492 kts 360°
2026-04-27 23:48 16.54628 -66.58552 33028 ft 492 kts 360°
2026-04-27 23:48 16.61470 -66.58212 33030 ft 492 kts 360°
2026-04-27 23:49 16.68303 -66.57873 32904 ft 491 kts 360°
2026-04-27 23:49 16.71727 -66.57703 32207 ft 495 kts 360°
2026-04-27 23:49 16.75180 -66.57532 31516 ft 498 kts
2026-04-27 23:50 16.78635 -66.57361 30965 ft 497 kts
2026-04-27 23:50 16.82078 -66.57189 30509 ft 494 kts
2026-04-27 23:50 16.85499 -66.57017 30002 ft 491 kts
2026-04-27 23:50 16.88913 -66.56847 29365 ft 491 kts
2026-04-27 23:51 16.92314 -66.56678 28885 ft 487 kts
2026-04-27 23:51 16.95639 -66.56512 28444 ft 482 kts
2026-04-27 23:51 16.98977 -66.56345 27973 ft 478 kts
2026-04-27 23:51 17.02285 -66.56181 27578 ft 473 kts
2026-04-27 23:52 17.05554 -66.56018 27243 ft 468 kts
2026-04-27 23:52 17.08818 -66.55857 26639 ft 471 kts
2026-04-27 23:52 17.12109 -66.55695 25956 ft 474 kts
2026-04-27 23:52 17.15370 -66.55532 25721 ft 464 kts
2026-04-27 23:53 17.18569 -66.55373 25412 ft 457 kts
2026-04-27 23:53 17.21723 -66.55216 25098 ft 452 kts
2026-04-27 23:53 17.24865 -66.55060 24725 ft 452 kts
2026-04-27 23:53 17.28001 -66.54905 24315 ft 450 kts
2026-04-27 23:54 17.31127 -66.54750 23901 ft 448 kts
2026-04-27 23:54 17.34237 -66.54595 23430 ft 445 kts
2026-04-27 23:54 17.37323 -66.54442 22909 ft 442 kts
2026-04-27 23:54 17.40387 -66.54289 22403 ft 439 kts
2026-04-27 23:55 17.43429 -66.54138 21905 ft 436 kts
2026-04-27 23:55 17.46447 -66.53987 21420 ft 432 kts
2026-04-27 23:55 17.49444 -66.53838 20931 ft 429 kts
2026-04-27 23:55 17.52411 -66.53690 20461 ft 426 kts
2026-04-27 23:56 17.55317 -66.53546 19990 ft 422 kts
2026-04-27 23:56 17.58241 -66.53400 19541 ft 419 kts
2026-04-27 23:56 17.61142 -66.53255 19084 ft 416 kts
2026-04-27 23:56 17.64023 -66.53111 18642 ft 412 kts
2026-04-27 23:57 17.66874 -66.52969 18183 ft 409 kts
2026-04-27 23:57 17.69706 -66.52828 17659 ft 406 kts
2026-04-27 23:57 17.72517 -66.52688 17172 ft 403 kts
2026-04-27 23:57 17.75303 -66.52549 16669 ft 399 kts
2026-04-27 23:58 17.78069 -66.52410 16193 ft 396 kts
2026-04-27 23:58 17.80807 -66.52274 15711 ft 390 kts
2026-04-27 23:58 17.83470 -66.52140 15243 ft 377 kts
2026-04-27 23:58 17.86045 -66.52010 14793 ft 365 kts
2026-04-27 23:59 17.88542 -66.51885 14341 ft 354 kts
2026-04-27 23:59 17.90973 -66.51764 13902 ft 345 kts
2026-04-27 23:59 17.93340 -66.51645 13386 ft 337 kts
2026-04-27 23:59 17.95654 -66.51530 12905 ft 330 kts
2026-04-28 00:00 17.97927 -66.51416 12414 ft 323 kts
2026-04-28 00:00 18.00152 -66.51305 11929 ft 317 kts
2026-04-28 00:00 18.02338 -66.51198 11460 ft 312 kts
2026-04-28 00:00 18.04484 -66.51093 10979 ft 306 kts
2026-04-28 00:01 18.06588 -66.50989 10527 ft 300 kts
2026-04-28 00:01 18.08627 -66.50888 10069 ft 295 kts
2026-04-28 00:01 18.10664 -66.50786 9574 ft 291 kts
2026-04-28 00:01 18.12668 -66.50686 9079 ft 287 kts
2026-04-28 00:02 18.14646 -66.50587 8591 ft 283 kts
2026-04-28 00:02 18.16598 -66.50489 8107 ft 279 kts
2026-04-28 00:02 18.18526 -66.50392 7626 ft 276 kts
2026-04-28 00:02 18.20425 -66.50297 7198 ft 270 kts
2026-04-28 00:03 18.22258 -66.50202 6943 ft 258 kts
2026-04-28 00:03 18.23951 -66.49769 6973 ft 246 kts 30°
2026-04-28 00:03 18.25211 -66.48620 7023 ft 238 kts 53°
2026-04-28 00:03 18.26166 -66.47204 7021 ft 238 kts 59°
2026-04-28 00:04 18.27065 -66.45752 7030 ft 236 kts 58°
2026-04-28 00:04 18.28864 -66.42854 6889 ft 237 kts 58°
2026-04-28 00:04 18.29775 -66.41406 6695 ft 237 kts 58°
2026-04-28 00:05 18.30686 -66.39963 6449 ft 236 kts 58°
2026-04-28 00:05 18.31593 -66.38529 6146 ft 235 kts 58°
2026-04-28 00:05 18.32496 -66.37103 5842 ft 233 kts 57°
2026-04-28 00:05 18.33092 -66.36164 5657 ft 233 kts 57°
2026-04-28 00:06 18.34290 -66.34274 5256 ft 231 kts 57°
2026-04-28 00:06 18.35178 -66.32874 4977 ft 229 kts 58°
2026-04-28 00:06 18.36063 -66.31480 4697 ft 228 kts 57°
2026-04-28 00:06 18.36944 -66.30094 4383 ft 228 kts 57°
2026-04-28 00:07 18.37528 -66.29176 4162 ft 228 kts 57°
2026-04-28 00:07 18.38705 -66.27325 3731 ft 226 kts 57°
2026-04-28 00:07 18.39281 -66.26419 3523 ft 223 kts 57°
2026-04-28 00:07 18.40130 -66.25084 3209 ft 216 kts 58°
2026-04-28 00:08 18.41224 -66.23363 2787 ft 212 kts 58°
2026-04-28 00:08 18.41786 -66.22479 2586 ft 217 kts 58°
2026-04-28 00:08 18.42606 -66.21118 2261 ft 221 kts 63°
2026-04-28 00:08 18.43182 -66.19626 2024 ft 220 kts 77°
2026-04-28 00:09 18.43386 -66.18041 1983 ft 218 kts 89°
2026-04-28 00:09 18.43410 -66.16464 1975 ft 209 kts 92°
2026-04-28 00:09 18.43404 -66.15011 1994 ft 186 kts 92°
2026-04-28 00:09 18.43397 -66.13711 1996 ft 173 kts 93°
2026-04-28 00:10 18.43389 -66.12474 1985 ft 170 kts 92°
2026-04-28 00:10 18.43388 -66.11226 1984 ft 169 kts 91°
2026-04-28 00:10 18.43378 -66.10024 1977 ft 161 kts 93°
2026-04-28 00:10 18.43374 -66.08857 1969 ft 160 kts 92°
2026-04-28 00:11 18.43372 -66.07685 1767 ft 160 kts 92°
2026-04-28 00:11 18.43368 -66.06513 1397 ft 161 kts 92°
2026-04-28 00:11 18.43359 -66.05304 977 ft 167 kts 92°
2026-04-28 00:11 18.43348 -66.04044 707 ft 187 kts 91°
2026-04-28 00:12 18.43331 -66.02519 1151 ft 225 kts 92°
2026-04-28 00:12 18.43303 -66.00786 1942 ft 242 kts 92°
2026-04-28 00:12 18.43275 -65.99070 2696 ft 229 kts 92°
2026-04-28 00:12 18.43476 -65.97422 3417 ft 230 kts 69°
2026-04-28 00:13 18.44416 -65.96079 3845 ft 231 kts 38°
2026-04-28 00:13 18.45889 -65.95423 3985 ft 234 kts
2026-04-28 00:13 18.47491 -65.95660 3999 ft 236 kts 335°
2026-04-28 00:13 18.48851 -65.96625 4007 ft 237 kts 319°
2026-04-28 00:14 18.50078 -65.97797 4002 ft 239 kts 316°
2026-04-28 00:14 18.51275 -65.98991 3997 ft 236 kts 316°
2026-04-28 00:14 18.52459 -66.00178 3998 ft 235 kts 316°
2026-04-28 00:14 18.53639 -66.01382 4002 ft 236 kts 316°
2026-04-28 00:15 18.54679 -66.02710 3988 ft 236 kts 294°
2026-04-28 00:15 18.55044 -66.04377 3987 ft 235 kts 271°
2026-04-28 00:15 18.55050 -66.06089 3973 ft 230 kts 266°
2026-04-28 00:15 18.54995 -66.07740 3975 ft 223 kts 266°
2026-04-28 00:16 18.54938 -66.09378 3984 ft 224 kts 267°
2026-04-28 00:16 18.54877 -66.11018 3981 ft 224 kts 266°
2026-04-28 00:16 18.54808 -66.12652 3981 ft 223 kts 266°
2026-04-28 00:16 18.54737 -66.14279 3983 ft 222 kts 266°
2026-04-28 00:17 18.54670 -66.15895 3979 ft 219 kts 266°
2026-04-28 00:17 18.54607 -66.17500 3979 ft 219 kts 266°
2026-04-28 00:17 18.54546 -66.19100 4006 ft 217 kts 266°
2026-04-28 00:17 18.54484 -66.20675 4000 ft 214 kts 266°
2026-04-28 00:18 18.54427 -66.22244 4020 ft 215 kts 266°
2026-04-28 00:18 18.54367 -66.23812 3941 ft 213 kts 266°
2026-04-28 00:18 18.54081 -66.25306 3788 ft 208 kts 241°
2026-04-28 00:18 18.53085 -66.26348 3655 ft 203 kts 204°
2026-04-28 00:19 18.51726 -66.26583 3501 ft 199 kts 174°
2026-04-28 00:19 18.50380 -66.26350 3323 ft 198 kts 167°
2026-04-28 00:19 18.49071 -66.25910 3088 ft 198 kts 153°
2026-04-28 00:19 18.47942 -66.25094 2832 ft 197 kts 138°
2026-04-28 00:20 18.47004 -66.24048 2600 ft 196 kts 130°
2026-04-28 00:20 18.46201 -66.22897 2345 ft 195 kts 124°
2026-04-28 00:20 18.45496 -66.21666 2112 ft 197 kts 120°
2026-04-28 00:20 18.44903 -66.20400 1986 ft 186 kts 115°
2026-04-28 00:21 18.44440 -66.19183 1969 ft 173 kts 111°
2026-04-28 00:21 18.44075 -66.17998 1974 ft 169 kts 108°
2026-04-28 00:21 18.43787 -66.16805 1878 ft 165 kts 104°
2026-04-28 00:21 18.43583 -66.15643 1767 ft 159 kts 100°
2026-04-28 00:22 18.43450 -66.14492 1668 ft 158 kts 97°
2026-04-28 00:22 18.43383 -66.13338 1569 ft 158 kts 94°
2026-04-28 00:22 18.43369 -66.12184 1496 ft 158 kts 92°
2026-04-28 00:22 18.43385 -66.11025 1482 ft 159 kts 91°
2026-04-28 00:23 18.43375 -66.09860 1487 ft 159 kts 92°
2026-04-28 00:23 18.43371 -66.08697 1359 ft 159 kts 92°
2026-04-28 00:23 18.43367 -66.07536 1155 ft 158 kts 92°
2026-04-28 00:23 18.43363 -66.06381 961 ft 158 kts 91°
2026-04-28 00:24 18.43360 -66.05255 757 ft 149 kts 92°
2026-04-28 00:24 18.43358 -66.04179 578 ft 146 kts 91°
2026-04-28 00:24 18.43356 -66.03113 378 ft 146 kts 91°
2026-04-28 00:24 18.43357 -66.02046 167 ft 145 kts 91°
2026-04-28 00:25 18.43358 -66.00990 30 ft 142 kts 92°
2026-04-28 00:25 18.43353 -66.00117 22 ft 88 kts 90°
2026-04-28 00:25 18.43350 -65.99597 20 ft 48 kts 90°
2026-04-28 00:25 18.43351 -65.99269 21 ft 41 kts 90°
2026-04-28 00:26 18.43394 -65.99089 22 ft 15 kts 28°
2026-04-28 00:26 18.43459 -65.99137 21 ft 13 kts 279°
2026-04-28 00:26 18.43463 -65.99236 23 ft 14 kts 271°
2026-04-28 00:26 18.43462 -65.99344 22 ft 15 kts 269°
2026-04-28 00:27 18.43462 -65.99458 24 ft 16 kts 269°
2026-04-28 00:27 18.43494 -65.99541 24 ft 10 kts 335°
2026-04-28 00:27 18.43566 -65.99540 22 ft 11 kts 18°
2026-04-28 00:27 18.43641 -65.99518 23 ft 12 kts
2026-04-28 00:28 18.43715 -65.99518 23 ft 9 kts
2026-04-28 00:28 18.43781 -65.99518 24 ft 10 kts
2026-04-28 00:28 18.43831 -65.99481 22 ft 9 kts 63°
2026-04-28 00:28 18.43845 -65.99451 22 ft 0 kts 64°